Time,TemperatureF,DewpointF,PressureIn,WindDirection,WindDirectionDegrees,WindSpeedMPH,WindSpeedGustMPH,Humidity,HourlyPrecipIn,Conditions,Clouds,dailyrainin,SoftwareType,DateUTC
2013-05-04 00:01:00,54.2,47.8,30.13,NNE,21,6.0,14.0,79,0.00,,---,0.00,VWS V14.00,2013-05-04 04:01:00,
2013-05-04 00:06:00,54.0,48.0,30.13,NE,41,11.0,14.0,80,0.00,,---,0.00,VWS V14.00,2013-05-04 04:06:00,
2013-05-04 00:11:00,53.9,47.9,30.13,NNE,30,11.0,14.0,80,0.00,,---,0.00,VWS V14.00,2013-05-04 04:11:00,
2013-05-04 00:16:00,53.9,47.9,30.13,NE,41,10.0,14.0,80,0.00,,---,0.00,VWS V14.00,2013-05-04 04:16:00,
2013-05-04 00:21:00,53.8,48.1,30.13,NNE,12,7.0,14.0,81,0.00,,---,0.00,VWS V14.00,2013-05-04 04:21:00,
2013-05-04 00:26:00,53.6,47.9,30.13,NE,43,13.0,14.0,81,0.00,,---,0.00,VWS V14.00,2013-05-04 04:26:00,
2013-05-04 00:31:00,53.5,47.8,30.13,NNE,31,7.0,16.0,81,0.00,,---,0.00,VWS V14.00,2013-05-04 04:31:00,
2013-05-04 00:36:00,53.5,47.8,30.13,NE,51,5.0,16.0,81,0.00,,---,0.00,VWS V14.00,2013-05-04 04:36:00,
2013-05-04 00:41:00,53.3,48.0,30.13,NE,38,5.0,16.0,82,0.00,,---,0.00,VWS V14.00,2013-05-04 04:41:00,
2013-05-04 00:46:00,53.2,47.9,30.13,NNE,15,6.0,16.0,82,0.00,,---,0.00,VWS V14.00,2013-05-04 04:46:00,
2013-05-04 00:51:00,53.1,47.8,30.13,NNE,27,7.0,16.0,82,0.00,,---,0.00,VWS V14.00,2013-05-04 04:51:00,
2013-05-04 00:56:00,53.0,47.7,30.12,ENE,60,6.0,16.0,82,0.00,,---,0.00,VWS V14.00,2013-05-04 04:56:00,
2013-05-04 01:01:00,52.9,47.9,30.12,NE,46,5.0,13.0,83,0.00,,---,0.00,VWS V14.00,2013-05-04 05:01:00,
2013-05-04 01:06:00,52.8,47.8,30.12,NE,48,4.0,13.0,83,0.00,,---,0.00,VWS V14.00,2013-05-04 05:06:00,
2013-05-04 01:11:00,52.8,47.8,30.12,NE,36,13.0,13.0,83,0.00,,---,0.00,VWS V14.00,2013-05-04 05:11:00,
2013-05-04 01:16:00,52.7,47.7,30.12,NNE,30,11.0,13.0,83,0.00,,---,0.00,VWS V14.00,2013-05-04 05:16:00,
2013-05-04 01:21:00,52.6,47.6,30.11,NE,40,9.0,13.0,83,0.00,,---,0.00,VWS V14.00,2013-05-04 05:21:00,
2013-05-04 01:26:00,52.6,47.6,30.11,NNE,33,3.0,13.0,83,0.00,,---,0.00,VWS V14.00,2013-05-04 05:26:00,
2013-05-04 01:31:00,52.5,47.8,30.11,NNE,19,6.0,12.0,84,0.00,,---,0.00,VWS V14.00,2013-05-04 05:31:00,
2013-05-04 01:36:00,52.5,47.8,30.11,NE,35,5.0,12.0,84,0.00,,---,0.00,VWS V14.00,2013-05-04 05:36:00,
2013-05-04 01:41:00,52.4,47.7,30.11,NNE,30,7.0,13.0,84,0.00,,---,0.00,VWS V14.00,2013-05-04 05:41:00,
2013-05-04 01:46:00,52.4,47.7,30.11,NNE,23,5.0,13.0,84,0.00,,---,0.00,VWS V14.00,2013-05-04 05:46:00,
2013-05-04 01:51:00,52.3,47.6,30.11,NNE,26,6.0,13.0,84,0.00,,---,0.00,VWS V14.00,2013-05-04 05:51:00,
2013-05-04 01:56:00,52.1,47.7,30.11,North,8,7.0,13.0,85,0.00,,---,0.00,VWS V14.00,2013-05-04 05:56:00,
2013-05-04 02:01:00,51.9,47.5,30.10,NNE,21,8.0,9.0,85,0.00,,---,0.00,VWS V14.00,2013-05-04 06:01:00,
2013-05-04 02:06:00,51.8,47.4,30.10,NNE,15,6.0,9.0,85,0.00,,---,0.00,VWS V14.00,2013-05-04 06:06:00,
2013-05-04 02:11:00,51.6,47.6,30.10,North,3,6.0,9.0,86,0.00,,---,0.00,VWS V14.00,2013-05-04 06:11:00,
2013-05-04 02:16:00,51.5,47.5,30.10,North,354,4.0,9.0,86,0.00,,---,0.00,VWS V14.00,2013-05-04 06:16:00,
2013-05-04 02:21:00,51.4,47.7,30.10,North,2,4.0,9.0,87,0.00,,---,0.00,VWS V14.00,2013-05-04 06:21:00,
2013-05-04 02:26:00,51.2,47.5,30.10,North,358,4.0,9.0,87,0.00,,---,0.00,VWS V14.00,2013-05-04 06:26:00,
2013-05-04 02:31:00,51.1,47.4,30.10,NNE,26,4.0,6.0,87,0.00,,---,0.00,VWS V14.00,2013-05-04 06:31:00,
2013-05-04 02:36:00,51.0,47.6,30.10,NNE,16,4.0,6.0,88,0.00,,---,0.00,VWS V14.00,2013-05-04 06:36:00,
2013-05-04 02:41:00,51.1,47.7,30.09,North,4,7.0,7.0,88,0.00,,---,0.00,VWS V14.00,2013-05-04 06:41:00,
2013-05-04 02:46:00,51.1,47.7,30.09,North,354,6.0,9.0,88,0.00,,---,0.00,VWS V14.00,2013-05-04 06:46:00,
2013-05-04 02:51:00,51.0,47.6,30.09,North,4,5.0,9.0,88,0.00,,---,0.00,VWS V14.00,2013-05-04 06:51:00,
2013-05-04 02:56:00,51.0,47.6,30.09,North,359,4.0,9.0,88,0.00,,---,0.00,VWS V14.00,2013-05-04 06:56:00,
2013-05-04 03:01:00,51.0,47.6,30.09,NNE,26,3.0,6.0,88,0.00,,---,0.00,VWS V14.00,2013-05-04 07:01:00,
2013-05-04 03:06:00,51.1,47.7,30.09,NNE,12,4.0,7.0,88,0.00,,---,0.00,VWS V14.00,2013-05-04 07:06:00,
2013-05-04 03:11:00,51.2,48.1,30.08,NNE,14,4.0,8.0,89,0.00,,---,0.00,VWS V14.00,2013-05-04 07:11:00,
2013-05-04 03:16:00,51.4,48.3,30.08,North,8,4.0,9.0,89,0.00,,---,0.00,VWS V14.00,2013-05-04 07:16:00,
2013-05-04 03:21:00,51.6,48.2,30.08,NNW,330,5.0,9.0,88,0.00,,---,0.00,VWS V14.00,2013-05-04 07:21:00,
2013-05-04 03:26:00,51.9,48.5,30.08,NNE,28,5.0,9.0,88,0.00,,---,0.00,VWS V14.00,2013-05-04 07:26:00,
2013-05-04 03:31:00,52.1,48.7,30.08,NNE,26,7.0,8.0,88,0.00,,---,0.00,VWS V14.00,2013-05-04 07:31:00,
2013-05-04 03:36:00,52.3,48.9,30.08,NNE,33,5.0,9.0,88,0.00,,---,0.00,VWS V14.00,2013-05-04 07:36:00,
2013-05-04 03:41:00,52.5,49.0,30.08,NNE,26,4.0,10.0,88,0.00,,---,0.00,VWS V14.00,2013-05-04 07:41:00,
2013-05-04 03:47:00,52.7,49.2,30.08,North,0,7.0,13.0,88,0.00,,---,0.00,VWS V14.00,2013-05-04 07:47:00,
2013-05-04 03:52:00,52.9,49.5,30.08,NNE,27,13.0,14.0,88,0.00,,---,0.00,VWS V14.00,2013-05-04 07:52:00,
2013-05-04 03:57:00,53.0,49.5,30.08,North,10,8.0,14.0,88,0.00,,---,0.00,VWS V14.00,2013-05-04 07:57:00,
2013-05-04 04:02:00,53.0,49.5,30.07,NNE,17,11.0,15.0,88,0.00,,---,0.00,VWS V14.00,2013-05-04 08:02:00,
2013-05-04 04:07:00,53.0,49.5,30.07,North,10,7.0,17.0,88,0.00,,---,0.00,VWS V14.00,2013-05-04 08:07:00,
2013-05-04 04:12:00,52.9,49.5,30.07,NNE,26,7.0,17.0,88,0.00,,---,0.00,VWS V14.00,2013-05-04 08:12:00,
2013-05-04 04:17:00,52.9,49.5,30.07,North,11,11.0,17.0,88,0.00,,---,0.00,VWS V14.00,2013-05-04 08:17:00,
2013-05-04 04:22:00,52.8,49.7,30.07,NNE,31,12.0,17.0,89,0.00,,---,0.00,VWS V14.00,2013-05-04 08:22:00,
2013-05-04 04:27:00,52.7,49.5,30.07,NNE,33,9.0,17.0,89,0.00,,---,0.00,VWS V14.00,2013-05-04 08:27:00,
2013-05-04 04:32:00,52.7,49.5,30.08,NE,36,4.0,12.0,89,0.00,,---,0.00,VWS V14.00,2013-05-04 08:32:00,
2013-05-04 04:37:00,52.6,49.8,30.07,NE,45,9.0,17.0,90,0.00,,---,0.00,VWS V14.00,2013-05-04 08:37:00,
2013-05-04 04:42:00,52.6,49.8,30.07,NNE,26,9.0,17.0,90,0.00,,---,0.00,VWS V14.00,2013-05-04 08:42:00,
2013-05-04 04:47:00,52.6,50.0,30.07,NNE,23,11.0,18.0,91,0.00,,---,0.00,VWS V14.00,2013-05-04 08:47:00,
2013-05-04 04:52:00,52.7,50.2,30.07,NNE,31,11.0,18.0,91,0.00,,---,0.00,VWS V14.00,2013-05-04 08:52:00,
2013-05-04 04:57:00,52.6,50.0,30.07,NNE,12,8.0,18.0,91,0.00,,---,0.00,VWS V14.00,2013-05-04 08:57:00,
2013-05-04 05:02:00,52.6,50.0,30.07,NNE,23,6.0,14.0,91,0.00,,---,0.00,VWS V14.00,2013-05-04 09:02:00,
2013-05-04 05:07:00,52.4,49.8,30.07,NE,47,13.0,17.0,91,0.00,,---,0.00,VWS V14.00,2013-05-04 09:07:00,
2013-05-04 05:12:00,52.4,49.8,30.07,NE,38,10.0,17.0,91,0.00,,---,0.00,VWS V14.00,2013-05-04 09:12:00,
2013-05-04 05:17:00,52.4,50.2,30.07,NNE,22,8.0,17.0,92,0.00,,---,0.00,VWS V14.00,2013-05-04 09:17:00,
2013-05-04 05:22:00,52.5,50.0,30.07,NNE,23,10.0,17.0,91,0.00,,---,0.00,VWS V14.00,2013-05-04 09:22:00,
2013-05-04 05:27:00,52.5,50.0,30.08,NNE,30,14.0,17.0,91,0.00,,---,0.00,VWS V14.00,2013-05-04 09:27:00,
2013-05-04 05:32:00,52.4,49.8,30.08,North,6,8.0,16.0,91,0.00,,---,0.00,VWS V14.00,2013-05-04 09:32:00,
2013-05-04 05:37:00,52.5,50.0,30.08,NNE,25,9.0,16.0,91,0.00,,---,0.00,VWS V14.00,2013-05-04 09:37:00,
2013-05-04 05:42:00,52.5,50.0,30.07,NNE,16,6.0,16.0,91,0.00,,---,0.00,VWS V14.00,2013-05-04 09:42:00,
2013-05-04 05:47:00,52.5,50.0,30.07,NNE,23,10.0,18.0,91,0.00,,---,0.00,VWS V14.00,2013-05-04 09:47:00,
2013-05-04 05:52:00,52.6,50.0,30.07,NE,35,12.0,18.0,91,0.00,,---,0.00,VWS V14.00,2013-05-04 09:52:00,
2013-05-04 05:57:00,52.6,50.0,30.08,NNE,21,10.0,18.0,91,0.00,,---,0.00,VWS V14.00,2013-05-04 09:57:00,
2013-05-04 06:02:00,52.7,50.2,30.07,NE,37,5.0,17.0,91,0.00,,---,0.00,VWS V14.00,2013-05-04 10:02:00,
2013-05-04 06:07:00,52.7,50.5,30.08,NNE,22,9.0,18.0,92,0.00,,---,0.00,VWS V14.00,2013-05-04 10:07:00,
2013-05-04 06:12:00,52.8,50.5,30.08,North,7,14.0,19.0,92,0.00,,---,0.00,VWS V14.00,2013-05-04 10:12:00,
2013-05-04 06:17:00,52.8,50.5,30.08,NE,34,13.0,19.0,92,0.00,,---,0.00,VWS V14.00,2013-05-04 10:17:00,
2013-05-04 06:22:00,52.9,50.6,30.08,North,8,9.0,19.0,92,0.00,,---,0.00,VWS V14.00,2013-05-04 10:22:00,
2013-05-04 06:27:00,53.0,50.5,30.08,NNE,13,16.0,19.0,91,0.00,,---,0.00,VWS V14.00,2013-05-04 10:27:00,
2013-05-04 06:32:00,53.0,50.5,30.08,North,8,7.0,13.0,91,0.00,,---,0.00,VWS V14.00,2013-05-04 10:32:00,
2013-05-04 06:37:00,53.1,50.5,30.08,NNE,19,13.0,17.0,91,0.00,,---,0.00,VWS V14.00,2013-05-04 10:37:00,
2013-05-04 06:42:00,53.2,50.7,30.08,NE,41,13.0,21.0,91,0.00,,---,0.00,VWS V14.00,2013-05-04 10:42:00,
2013-05-04 06:47:00,53.3,50.7,30.08,NNE,31,17.0,21.0,91,0.00,,---,0.00,VWS V14.00,2013-05-04 10:47:00,
2013-05-04 06:52:00,53.3,50.7,30.08,NNE,23,10.0,21.0,91,0.00,,---,0.00,VWS V14.00,2013-05-04 10:52:00,
2013-05-04 06:57:00,53.4,50.8,30.08,NNE,19,13.0,21.0,91,0.00,,---,0.00,VWS V14.00,2013-05-04 10:57:00,
2013-05-04 07:02:00,53.5,50.9,30.08,North,4,12.0,18.0,91,0.00,,---,0.00,VWS V14.00,2013-05-04 11:02:00,
2013-05-04 07:07:00,53.6,51.0,30.08,NE,50,16.0,21.0,91,0.00,,---,0.00,VWS V14.00,2013-05-04 11:07:00,
2013-05-04 07:12:00,53.7,51.1,30.08,NNE,25,9.0,21.0,91,0.00,,---,0.00,VWS V14.00,2013-05-04 11:12:00,
2013-05-04 07:17:00,53.9,51.3,30.08,NNE,28,9.0,21.0,91,0.00,,---,0.00,VWS V14.00,2013-05-04 11:17:00,
2013-05-04 07:22:00,53.9,51.0,30.08,NNE,18,8.0,21.0,90,0.00,,---,0.00,VWS V14.00,2013-05-04 11:22:00,
2013-05-04 07:27:00,54.0,51.1,30.08,NNE,33,8.0,21.0,90,0.00,,---,0.00,VWS V14.00,2013-05-04 11:27:00,
2013-05-04 07:32:00,54.1,51.2,30.08,NE,42,11.0,23.0,90,0.00,,---,0.00,VWS V14.00,2013-05-04 11:32:00,
2013-05-04 07:37:00,54.2,51.3,30.08,NE,48,8.0,23.0,90,0.00,,---,0.00,VWS V14.00,2013-05-04 11:37:00,
2013-05-04 07:42:00,54.3,51.4,30.08,NE,39,9.0,23.0,90,0.00,,---,0.00,VWS V14.00,2013-05-04 11:42:00,
2013-05-04 07:47:00,54.5,51.3,30.08,NE,47,10.0,23.0,89,0.00,,---,0.00,VWS V14.00,2013-05-04 11:47:00,
2013-05-04 07:52:00,54.7,51.2,30.08,NE,35,11.0,23.0,88,0.00,,---,0.00,VWS V14.00,2013-05-04 11:52:00,
2013-05-04 07:57:00,54.9,51.4,30.08,NNE,26,7.0,23.0,88,0.00,,---,0.00,VWS V14.00,2013-05-04 11:57:00,
2013-05-04 08:02:00,55.2,51.4,30.08,North,358,12.0,20.0,87,0.00,,---,0.00,VWS V14.00,2013-05-04 12:02:00,
2013-05-04 08:07:00,55.4,51.3,30.09,NNE,29,15.0,20.0,86,0.00,,---,0.00,VWS V14.00,2013-05-04 12:07:00,
2013-05-04 08:12:00,55.4,51.3,30.08,NNE,27,11.0,23.0,86,0.00,,---,0.00,VWS V14.00,2013-05-04 12:12:00,
2013-05-04 08:17:00,55.5,51.4,30.09,NNE,27,9.0,23.0,86,0.00,,---,0.00,VWS V14.00,2013-05-04 12:17:00,
2013-05-04 08:23:00,55.6,51.2,30.09,NE,35,12.0,23.0,85,0.00,,---,0.00,VWS V14.00,2013-05-04 12:23:00,
2013-05-04 08:28:00,55.7,51.3,30.09,NE,35,11.0,23.0,85,0.00,,---,0.00,VWS V14.00,2013-05-04 12:28:00,
2013-05-04 08:33:00,55.9,51.5,30.09,NE,48,10.0,22.0,85,0.00,,---,0.00,VWS V14.00,2013-05-04 12:33:00,
2013-05-04 08:38:00,56.2,51.8,30.08,NE,53,14.0,22.0,85,0.00,,---,0.00,VWS V14.00,2013-05-04 12:38:00,
2013-05-04 08:43:00,56.4,51.6,30.08,ENE,57,9.0,22.0,84,0.00,,---,0.00,VWS V14.00,2013-05-04 12:43:00,
2013-05-04 08:48:00,56.6,51.5,30.09,North,4,11.0,22.0,83,0.00,,---,0.00,VWS V14.00,2013-05-04 12:48:00,
2013-05-04 08:53:00,56.9,51.5,30.08,ESE,108,5.0,22.0,82,0.00,,---,0.00,VWS V14.00,2013-05-04 12:53:00,
2013-05-04 08:58:00,57.2,51.4,30.08,NNE,25,12.0,18.0,81,0.00,,---,0.00,VWS V14.00,2013-05-04 12:58:00,
2013-05-04 09:03:00,57.5,51.7,30.08,NNE,29,12.0,18.0,81,0.00,,---,0.00,VWS V14.00,2013-05-04 13:03:00,
2013-05-04 09:04:00,57.5,51.7,30.08,NE,37,14.0,18.0,81,0.00,,---,0.00,VWS V14.00,2013-05-04 13:04:00,
2013-05-04 09:09:00,57.8,51.7,30.08,NNE,22,16.0,18.0,80,0.00,,---,0.00,VWS V14.00,2013-05-04 13:09:00,
2013-05-04 09:14:00,57.8,51.3,30.08,NE,40,14.0,24.0,79,0.00,,---,0.00,VWS V14.00,2013-05-04 13:14:00,
2013-05-04 09:19:00,57.9,51.4,30.09,NE,35,15.0,25.0,79,0.00,,---,0.00,VWS V14.00,2013-05-04 13:19:00,
2013-05-04 09:24:00,58.2,52.1,30.08,NNE,18,12.0,25.0,80,0.00,,---,0.00,VWS V14.00,2013-05-04 13:24:00,
2013-05-04 09:29:00,58.6,52.1,30.08,NNE,21,7.0,15.0,79,0.00,,---,0.00,VWS V14.00,2013-05-04 13:29:00,
2013-05-04 09:34:00,59.1,51.5,30.08,ENE,57,17.0,22.0,76,0.00,,---,0.00,VWS V14.00,2013-05-04 13:34:00,
2013-05-04 09:39:00,59.3,51.8,30.08,NE,44,10.0,23.0,76,0.00,,---,0.00,VWS V14.00,2013-05-04 13:39:00,
2013-05-04 09:44:00,60.3,52.0,30.09,NNE,23,13.0,23.0,74,0.00,,---,0.00,VWS V14.00,2013-05-04 13:44:00,
2013-05-04 09:49:00,60.5,51.8,30.09,NNE,29,10.0,23.0,73,0.00,,---,0.00,VWS V14.00,2013-05-04 13:49:00,
2013-05-04 09:54:00,60.1,51.4,30.09,NNE,30,14.0,23.0,73,0.00,,---,0.00,VWS V14.00,2013-05-04 13:54:00,
2013-05-04 09:59:00,59.9,51.2,30.09,NNE,21,16.0,18.0,73,0.00,,---,0.00,VWS V14.00,2013-05-04 13:59:00,
2013-05-04 10:04:00,60.2,51.9,30.09,ENE,74,11.0,20.0,74,0.00,,---,0.00,VWS V14.00,2013-05-04 14:04:00,
2013-05-04 10:09:00,60.3,52.0,30.08,NNE,28,16.0,20.0,74,0.00,,---,0.00,VWS V14.00,2013-05-04 14:09:00,
2013-05-04 10:14:00,60.6,52.3,30.09,NE,52,14.0,21.0,74,0.00,,---,0.00,VWS V14.00,2013-05-04 14:14:00,
2013-05-04 10:19:00,61.1,52.8,30.08,North,10,12.0,21.0,74,0.00,,---,0.00,VWS V14.00,2013-05-04 14:19:00,
2013-05-04 10:24:00,60.9,52.6,30.08,NNE,23,10.0,21.0,74,0.00,,---,0.00,VWS V14.00,2013-05-04 14:24:00,
2013-05-04 10:29:00,61.3,53.3,30.08,NE,37,12.0,13.0,75,0.00,,---,0.00,VWS V14.00,2013-05-04 14:29:00,
2013-05-04 10:34:00,61.8,53.4,30.08,NNE,32,13.0,14.0,74,0.00,,---,0.00,VWS V14.00,2013-05-04 14:34:00,
2013-05-04 10:39:00,61.6,53.2,30.08,North,11,15.0,20.0,74,0.00,,---,0.00,VWS V14.00,2013-05-04 14:39:00,
2013-05-04 10:44:00,61.4,53.0,30.08,NE,52,8.0,20.0,74,0.00,,---,0.00,VWS V14.00,2013-05-04 14:44:00,
2013-05-04 10:49:00,61.7,53.3,30.08,NNE,19,12.0,21.0,74,0.00,,---,0.00,VWS V14.00,2013-05-04 14:49:00,
2013-05-04 10:54:00,62.0,54.0,30.08,North,1,9.0,21.0,75,0.00,,---,0.00,VWS V14.00,2013-05-04 14:54:00,
2013-05-04 10:59:00,62.3,53.5,30.08,NE,35,21.0,21.0,73,0.00,,---,0.00,VWS V14.00,2013-05-04 14:59:00,
2013-05-04 11:04:00,62.4,54.0,30.07,NE,51,10.0,21.0,74,0.00,,---,0.00,VWS V14.00,2013-05-04 15:04:00,
2013-05-04 11:09:00,62.7,53.9,30.08,NNE,23,12.0,22.0,73,0.00,,---,0.00,VWS V14.00,2013-05-04 15:09:00,
2013-05-04 11:14:00,63.2,54.0,30.07,NE,37,15.0,22.0,72,0.00,,---,0.00,VWS V14.00,2013-05-04 15:14:00,
2013-05-04 11:19:00,63.6,54.4,30.07,NNE,20,9.0,22.0,72,0.00,,---,0.00,VWS V14.00,2013-05-04 15:19:00,
2013-05-04 11:24:00,64.2,55.0,30.07,NE,41,5.0,22.0,72,0.00,,---,0.00,VWS V14.00,2013-05-04 15:24:00,
2013-05-04 11:29:00,64.6,55.0,30.07,NNE,26,4.0,17.0,71,0.00,,---,0.00,VWS V14.00,2013-05-04 15:29:00,
2013-05-04 11:34:00,64.8,54.8,30.08,North,3,15.0,18.0,70,0.00,,---,0.00,VWS V14.00,2013-05-04 15:34:00,
2013-05-04 11:39:00,64.4,54.4,30.08,NE,44,11.0,20.0,70,0.00,,---,0.00,VWS V14.00,2013-05-04 15:39:00,
2013-05-04 11:44:00,64.8,54.8,30.08,NNE,31,10.0,20.0,70,0.00,,---,0.00,VWS V14.00,2013-05-04 15:44:00,
2013-05-04 11:49:00,65.2,54.8,30.08,NE,38,15.0,20.0,69,0.00,,---,0.00,VWS V14.00,2013-05-04 15:49:00,
2013-05-04 11:54:00,64.9,54.5,30.07,NE,35,7.0,20.0,69,0.00,,---,0.00,VWS V14.00,2013-05-04 15:54:00,
2013-05-04 11:59:00,65.4,55.4,30.07,ESE,105,3.0,12.0,70,0.00,,---,0.00,VWS V14.00,2013-05-04 15:59:00,
2013-05-04 12:04:00,65.9,55.0,30.07,ENE,63,9.0,18.0,68,0.00,,---,0.00,VWS V14.00,2013-05-04 16:04:00,
2013-05-04 12:09:00,66.1,55.2,30.07,ENE,60,8.0,18.0,68,0.00,,---,0.00,VWS V14.00,2013-05-04 16:09:00,
2013-05-04 12:14:00,66.2,55.3,30.07,NE,47,12.0,22.0,68,0.00,,---,0.00,VWS V14.00,2013-05-04 16:14:00,
2013-05-04 12:19:00,65.7,54.9,30.07,NE,48,8.0,22.0,68,0.00,,---,0.00,VWS V14.00,2013-05-04 16:19:00,
2013-05-04 12:24:00,65.6,54.8,30.06,North,4,16.0,22.0,68,0.00,,---,0.00,VWS V14.00,2013-05-04 16:24:00,
2013-05-04 12:29:00,65.6,54.8,30.06,NE,34,14.0,14.0,68,0.00,,---,0.00,VWS V14.00,2013-05-04 16:29:00,
2013-05-04 12:34:00,65.8,55.0,30.06,ENE,58,13.0,17.0,68,0.00,,---,0.00,VWS V14.00,2013-05-04 16:34:00,
2013-05-04 12:39:00,66.1,55.2,30.06,NNE,29,10.0,17.0,68,0.00,,---,0.00,VWS V14.00,2013-05-04 16:39:00,
2013-05-04 12:44:00,66.6,55.7,30.06,ENE,70,11.0,22.0,68,0.00,,---,0.00,VWS V14.00,2013-05-04 16:44:00,
2013-05-04 12:49:00,66.2,55.3,30.06,NNE,15,14.0,22.0,68,0.00,,---,0.00,VWS V14.00,2013-05-04 16:49:00,
2013-05-04 12:54:00,65.8,55.0,30.06,North,5,12.0,22.0,68,0.00,,---,0.00,VWS V14.00,2013-05-04 16:54:00,
2013-05-04 12:59:00,65.6,54.8,30.06,NE,41,9.0,18.0,68,0.00,,---,0.00,VWS V14.00,2013-05-04 16:59:00,
2013-05-04 13:04:00,65.6,54.8,30.06,North,2,17.0,21.0,68,0.00,,---,0.00,VWS V14.00,2013-05-04 17:04:00,
2013-05-04 13:09:00,65.8,55.4,30.06,ENE,57,18.0,21.0,69,0.00,,---,0.00,VWS V14.00,2013-05-04 17:09:00,
2013-05-04 13:14:00,65.6,54.8,30.06,NNE,31,14.0,21.0,68,0.00,,---,0.00,VWS V14.00,2013-05-04 17:14:00,
2013-05-04 13:19:00,65.7,54.9,30.06,East,80,13.0,21.0,68,0.00,,---,0.00,VWS V14.00,2013-05-04 17:19:00,
2013-05-04 13:24:00,65.8,55.0,30.06,NE,46,11.0,21.0,68,0.00,,---,0.00,VWS V14.00,2013-05-04 17:24:00,
2013-05-04 13:29:00,66.2,55.7,30.05,NNE,16,6.0,16.0,69,0.00,,---,0.00,VWS V14.00,2013-05-04 17:29:00,
2013-05-04 13:34:00,66.2,54.9,30.05,NE,54,11.0,25.0,67,0.00,,---,0.00,VWS V14.00,2013-05-04 17:34:00,
2013-05-04 13:39:00,65.7,54.5,30.05,NE,50,9.0,25.0,67,0.00,,---,0.00,VWS V14.00,2013-05-04 17:39:00,
2013-05-04 13:44:00,65.6,55.2,30.05,NNE,19,15.0,25.0,69,0.00,,---,0.00,VWS V14.00,2013-05-04 17:44:00,
2013-05-04 13:49:00,65.8,55.0,30.05,NE,54,14.0,25.0,68,0.00,,---,0.00,VWS V14.00,2013-05-04 17:49:00,
2013-05-04 13:54:00,65.9,55.0,30.04,NE,54,11.0,25.0,68,0.00,,---,0.00,VWS V14.00,2013-05-04 17:54:00,
2013-05-04 13:59:00,65.9,55.0,30.04,NE,55,14.0,24.0,68,0.00,,---,0.00,VWS V14.00,2013-05-04 17:59:00,
2013-05-04 14:04:00,65.9,55.5,30.04,NE,54,15.0,24.0,69,0.00,,---,0.00,VWS V14.00,2013-05-04 18:04:00,
2013-05-04 14:09:00,66.1,54.8,30.05,ENE,73,7.0,24.0,67,0.00,,---,0.00,VWS V14.00,2013-05-04 18:09:00,
2013-05-04 14:14:00,66.8,55.9,30.05,ENE,64,8.0,24.0,68,0.00,,---,0.00,VWS V14.00,2013-05-04 18:14:00,
2013-05-04 14:19:00,66.7,55.0,30.04,ENE,74,15.0,24.0,66,0.00,,---,0.00,VWS V14.00,2013-05-04 18:19:00,
2013-05-04 14:24:00,66.4,55.1,30.05,NNE,26,8.0,25.0,67,0.00,,---,0.00,VWS V14.00,2013-05-04 18:24:00,
2013-05-04 14:29:00,66.2,55.3,30.05,NE,48,7.0,19.0,68,0.00,,---,0.00,VWS V14.00,2013-05-04 18:29:00,
2013-05-04 14:34:00,66.2,55.3,30.04,NNE,27,12.0,21.0,68,0.00,,---,0.00,VWS V14.00,2013-05-04 18:34:00,
2013-05-04 14:39:00,66.3,55.8,30.04,ENE,71,17.0,21.0,69,0.00,,---,0.00,VWS V14.00,2013-05-04 18:39:00,
2013-05-04 14:44:00,66.2,55.7,30.04,ESE,113,11.0,21.0,69,0.00,,---,0.00,VWS V14.00,2013-05-04 18:44:00,
2013-05-04 14:49:00,66.2,55.7,30.04,East,85,12.0,21.0,69,0.00,,---,0.00,VWS V14.00,2013-05-04 18:49:00,
2013-05-04 14:54:00,66.5,56.0,30.03,ENE,66,10.0,22.0,69,0.00,,---,0.00,VWS V14.00,2013-05-04 18:54:00,
2013-05-04 14:59:00,66.2,55.7,30.03,ENE,71,17.0,21.0,69,0.00,,---,0.00,VWS V14.00,2013-05-04 18:59:00,
2013-05-04 15:04:00,66.2,55.7,30.03,ENE,58,14.0,22.0,69,0.00,,---,0.00,VWS V14.00,2013-05-04 19:04:00,
2013-05-04 15:09:00,66.2,55.7,30.03,ENE,57,15.0,23.0,69,0.00,,---,0.00,VWS V14.00,2013-05-04 19:09:00,
2013-05-04 15:14:00,66.1,55.7,30.03,ENE,63,19.0,23.0,69,0.00,,---,0.00,VWS V14.00,2013-05-04 19:14:00,
2013-05-04 15:19:00,65.8,55.8,30.03,ENE,77,14.0,25.0,70,0.00,,---,0.00,VWS V14.00,2013-05-04 19:19:00,
2013-05-04 15:24:00,65.8,56.2,30.03,East,81,13.0,25.0,71,0.00,,---,0.00,VWS V14.00,2013-05-04 19:24:00,
2013-05-04 15:29:00,65.2,56.3,30.03,ENE,60,17.0,18.0,73,0.00,,---,0.00,VWS V14.00,2013-05-04 19:29:00,
2013-05-04 15:34:00,64.5,56.4,30.04,ENE,75,13.0,24.0,75,0.00,,---,0.00,VWS V14.00,2013-05-04 19:34:00,
2013-05-04 15:39:00,64.0,56.3,30.03,ENE,66,18.0,24.0,76,0.00,,---,0.00,VWS V14.00,2013-05-04 19:39:00,
2013-05-04 15:44:00,63.8,56.8,30.03,NE,48,14.0,24.0,78,0.00,,---,0.00,VWS V14.00,2013-05-04 19:44:00,
2013-05-04 15:49:00,63.7,56.7,30.03,ENE,66,14.0,24.0,78,0.00,,---,0.00,VWS V14.00,2013-05-04 19:49:00,
2013-05-04 15:54:00,63.2,56.2,30.03,NNE,16,8.0,24.0,78,0.00,,---,0.00,VWS V14.00,2013-05-04 19:54:00,
2013-05-04 15:59:00,63.3,56.3,30.03,ENE,73,11.0,17.0,78,0.00,,---,0.00,VWS V14.00,2013-05-04 19:59:00,
2013-05-04 16:04:00,63.5,56.2,30.03,East,90,11.0,18.0,77,0.00,,---,0.00,VWS V14.00,2013-05-04 20:04:00,
2013-05-04 16:09:00,63.6,57.0,30.03,ENE,65,7.0,21.0,79,0.00,,---,0.00,VWS V14.00,2013-05-04 20:09:00,
2013-05-04 16:14:00,63.8,56.5,30.03,NE,56,13.0,21.0,77,0.00,,---,0.00,VWS V14.00,2013-05-04 20:14:00,
2013-05-04 16:19:00,63.4,56.4,30.03,East,89,9.0,21.0,78,0.00,,---,0.00,VWS V14.00,2013-05-04 20:19:00,
2013-05-04 16:24:00,63.1,56.1,30.03,NNE,29,13.0,21.0,78,0.00,,---,0.00,VWS V14.00,2013-05-04 20:24:00,
2013-05-04 16:29:00,63.1,55.8,30.02,NNE,16,10.0,20.0,77,0.00,,---,0.00,VWS V14.00,2013-05-04 20:29:00,
2013-05-04 16:34:00,63.4,56.1,30.03,NNE,24,4.0,20.0,77,0.00,,---,0.00,VWS V14.00,2013-05-04 20:34:00,
2013-05-04 16:39:00,63.5,55.8,30.03,ENE,64,11.0,20.0,76,0.00,,---,0.00,VWS V14.00,2013-05-04 20:39:00,
2013-05-04 16:44:00,63.2,55.9,30.03,NE,54,17.0,23.0,77,0.00,,---,0.00,VWS V14.00,2013-05-04 20:44:00,
2013-05-04 16:49:00,63.2,56.2,30.03,ENE,59,10.0,23.0,78,0.00,,---,0.00,VWS V14.00,2013-05-04 20:49:00,
2013-05-04 16:54:00,63.4,56.4,30.03,ENE,78,9.0,23.0,78,0.00,,---,0.00,VWS V14.00,2013-05-04 20:54:00,
2013-05-04 16:59:00,63.4,56.4,30.03,NE,35,14.0,17.0,78,0.00,,---,0.00,VWS V14.00,2013-05-04 20:59:00,
2013-05-04 17:04:00,63.2,56.2,30.03,NE,37,7.0,17.0,78,0.00,,---,0.00,VWS V14.00,2013-05-04 21:04:00,
2013-05-04 17:09:00,63.2,56.2,30.03,NE,50,11.0,17.0,78,0.00,,---,0.00,VWS V14.00,2013-05-04 21:09:00,
2013-05-04 17:14:00,63.0,55.7,30.03,ENE,69,10.0,17.0,77,0.00,,---,0.00,VWS V14.00,2013-05-04 21:14:00,
2013-05-04 17:19:00,62.9,55.9,30.03,ENE,66,11.0,17.0,78,0.00,,---,0.00,VWS V14.00,2013-05-04 21:19:00,
2013-05-04 17:24:00,62.8,56.2,30.03,NE,50,10.0,17.0,79,0.00,,---,0.00,VWS V14.00,2013-05-04 21:24:00,
2013-05-04 17:29:00,62.6,56.0,30.03,ENE,62,13.0,18.0,79,0.00,,---,0.00,VWS V14.00,2013-05-04 21:29:00,
2013-05-04 17:34:00,62.4,55.8,30.03,NNE,28,10.0,20.0,79,0.00,,---,0.00,VWS V14.00,2013-05-04 21:34:00,
2013-05-04 17:39:00,62.4,56.2,30.03,NNE,29,8.0,20.0,80,0.00,,---,0.00,VWS V14.00,2013-05-04 21:39:00,
2013-05-04 17:44:00,62.3,56.1,30.03,NNE,25,7.0,20.0,80,0.00,,---,0.00,VWS V14.00,2013-05-04 21:44:00,
2013-05-04 17:49:00,62.3,56.1,30.03,ENE,60,11.0,20.0,80,0.00,,---,0.00,VWS V14.00,2013-05-04 21:49:00,
2013-05-04 17:54:00,62.3,56.1,30.03,NE,34,9.0,20.0,80,0.00,,---,0.00,VWS V14.00,2013-05-04 21:54:00,
2013-05-04 17:59:00,62.3,56.1,30.02,NNE,31,14.0,16.0,80,0.00,,---,0.00,VWS V14.00,2013-05-04 21:59:00,
2013-05-04 18:04:00,62.3,56.1,30.03,NNE,16,5.0,17.0,80,0.00,,---,0.00,VWS V14.00,2013-05-04 22:04:00,
2013-05-04 18:10:00,62.1,55.9,30.02,NE,46,9.0,17.0,80,0.00,,---,0.00,VWS V14.00,2013-05-04 22:10:00,
2013-05-04 18:15:00,62.0,55.8,30.03,NE,38,14.0,18.0,80,0.00,,---,0.00,VWS V14.00,2013-05-04 22:15:00,
2013-05-04 18:20:00,61.9,56.0,30.02,NE,54,13.0,18.0,81,0.00,,---,0.00,VWS V14.00,2013-05-04 22:20:00,
2013-05-04 18:25:00,61.8,55.9,30.02,NE,35,10.0,18.0,81,0.00,,---,0.00,VWS V14.00,2013-05-04 22:25:00,
2013-05-04 18:30:00,61.8,55.9,30.02,NE,44,8.0,13.0,81,0.00,,---,0.00,VWS V14.00,2013-05-04 22:30:00,
2013-05-04 18:35:00,61.7,55.8,30.03,ENE,76,13.0,22.0,81,0.00,,---,0.00,VWS V14.00,2013-05-04 22:35:00,
2013-05-04 18:40:00,61.8,55.9,30.02,NE,41,8.0,22.0,81,0.00,,---,0.00,VWS V14.00,2013-05-04 22:40:00,
2013-05-04 18:45:00,61.9,56.0,30.02,NNE,29,13.0,22.0,81,0.00,,---,0.00,VWS V14.00,2013-05-04 22:45:00,
2013-05-04 18:50:00,62.0,56.1,30.02,ENE,77,7.0,22.0,81,0.00,,---,0.00,VWS V14.00,2013-05-04 22:50:00,
2013-05-04 18:55:00,61.9,56.0,30.02,ENE,58,10.0,22.0,81,0.00,,---,0.00,VWS V14.00,2013-05-04 22:55:00,
2013-05-04 19:00:00,61.8,55.9,30.02,NNE,32,10.0,17.0,81,0.00,,---,0.00,VWS V14.00,2013-05-04 23:00:00,
2013-05-04 19:05:00,61.7,56.2,30.02,NE,54,19.0,19.0,82,0.00,,---,0.00,VWS V14.00,2013-05-04 23:05:00,
2013-05-04 19:10:00,61.5,55.6,30.02,ENE,57,8.0,19.0,81,0.00,,---,0.00,VWS V14.00,2013-05-04 23:10:00,
2013-05-04 19:15:00,61.4,55.5,30.02,ENE,58,11.0,19.0,81,0.00,,---,0.00,VWS V14.00,2013-05-04 23:15:00,
2013-05-04 19:20:00,61.2,55.7,30.02,NE,40,14.0,22.0,82,0.00,,---,0.00,VWS V14.00,2013-05-04 23:20:00,
2013-05-04 19:25:00,61.0,55.5,30.02,NE,39,10.0,22.0,82,0.00,,---,0.00,VWS V14.00,2013-05-04 23:25:00,
2013-05-04 19:30:00,60.9,55.4,30.02,NE,43,13.0,21.0,82,0.00,,---,0.00,VWS V14.00,2013-05-04 23:30:00,
2013-05-04 19:35:00,60.7,55.5,30.03,NNE,26,9.0,21.0,83,0.00,,---,0.00,VWS V14.00,2013-05-04 23:35:00,
2013-05-04 19:40:00,60.7,55.5,30.03,ENE,60,8.0,22.0,83,0.00,,---,0.00,VWS V14.00,2013-05-04 23:40:00,
2013-05-04 19:45:00,60.6,55.8,30.03,NNE,25,10.0,22.0,84,0.00,,---,0.00,VWS V14.00,2013-05-04 23:45:00,
2013-05-04 19:50:00,60.6,55.8,30.03,NNE,20,5.0,22.0,84,0.00,,---,0.00,VWS V14.00,2013-05-04 23:50:00,
2013-05-04 19:55:00,60.5,55.7,30.03,ENE,65,10.0,22.0,84,0.00,,---,0.00,VWS V14.00,2013-05-04 23:55:00,
2013-05-04 20:00:00,60.4,55.5,30.03,ENE,62,21.0,25.0,84,0.00,,---,0.00,VWS V14.00,2013-05-05 00:00:00,
2013-05-04 20:05:00,60.3,55.5,30.03,NNE,26,10.0,25.0,84,0.00,,---,0.00,VWS V14.00,2013-05-05 00:05:00,
2013-05-04 20:10:00,60.1,55.6,30.03,NE,55,9.0,25.0,85,0.00,,---,0.00,VWS V14.00,2013-05-05 00:10:00,
2013-05-04 20:15:00,60.0,55.5,30.03,NE,52,17.0,25.0,85,0.00,,---,0.00,VWS V14.00,2013-05-05 00:15:00,
2013-05-04 20:20:00,59.8,55.3,30.03,NNE,25,7.0,25.0,85,0.00,,---,0.00,VWS V14.00,2013-05-05 00:20:00,
2013-05-04 20:25:00,59.6,55.1,30.03,ENE,77,10.0,25.0,85,0.00,,---,0.00,VWS V14.00,2013-05-05 00:25:00,
2013-05-04 20:30:00,59.5,55.3,30.03,NE,53,7.0,10.0,86,0.00,,---,0.00,VWS V14.00,2013-05-05 00:30:00,
2013-05-04 20:35:00,59.4,55.2,30.03,NE,46,9.0,22.0,86,0.00,,---,0.00,VWS V14.00,2013-05-05 00:35:00,
2013-05-04 20:40:00,59.3,55.1,30.04,NE,41,8.0,22.0,86,0.00,,---,0.00,VWS V14.00,2013-05-05 00:40:00,
2013-05-04 20:45:00,59.1,54.9,30.04,NNE,31,15.0,22.0,86,0.00,,---,0.00,VWS V14.00,2013-05-05 00:45:00,
2013-05-04 20:50:00,58.9,54.7,30.04,NE,43,9.0,22.0,86,0.00,,---,0.00,VWS V14.00,2013-05-05 00:50:00,
2013-05-04 20:55:00,58.6,55.1,30.04,North,9,6.0,22.0,88,0.00,,---,0.00,VWS V14.00,2013-05-05 00:55:00,
2013-05-04 21:00:00,58.3,55.1,30.05,NE,45,10.0,16.0,89,0.00,,---,0.00,VWS V14.00,2013-05-05 01:00:00,
2013-05-04 21:05:00,58.1,54.9,30.04,NE,53,13.0,16.0,89,0.00,,---,0.00,VWS V14.00,2013-05-05 01:05:00,
2013-05-04 21:10:00,58.0,55.1,30.05,NNE,33,7.0,16.0,90,0.00,,---,0.00,VWS V14.00,2013-05-05 01:10:00,
2013-05-04 21:15:00,57.9,55.0,30.05,NNE,21,6.0,16.0,90,0.00,,---,0.00,VWS V14.00,2013-05-05 01:15:00,
2013-05-04 21:20:00,57.9,55.0,30.05,NNE,30,4.0,16.0,90,0.00,,---,0.00,VWS V14.00,2013-05-05 01:20:00,
2013-05-04 21:25:00,57.9,55.0,30.05,NNE,23,4.0,16.0,90,0.00,,---,0.00,VWS V14.00,2013-05-05 01:25:00,
2013-05-04 21:30:00,58.0,54.8,30.05,ENE,64,10.0,13.0,89,0.00,,---,0.00,VWS V14.00,2013-05-05 01:30:00,
2013-05-04 21:35:00,58.1,54.9,30.05,NE,44,7.0,16.0,89,0.00,,---,0.00,VWS V14.00,2013-05-05 01:35:00,
2013-05-04 21:40:00,58.2,54.7,30.06,NE,50,9.0,16.0,88,0.00,,---,0.00,VWS V14.00,2013-05-05 01:40:00,
2013-05-04 21:45:00,58.2,54.7,30.05,NE,52,8.0,16.0,88,0.00,,---,0.00,VWS V14.00,2013-05-05 01:45:00,
2013-05-04 21:50:00,58.3,54.5,30.05,NNE,30,9.0,16.0,87,0.00,,---,0.00,VWS V14.00,2013-05-05 01:50:00,
2013-05-04 21:55:00,58.4,54.5,30.05,NNE,29,15.0,16.0,87,0.00,,---,0.00,VWS V14.00,2013-05-05 01:55:00,
2013-05-04 22:00:00,58.4,54.2,30.05,NNE,29,7.0,15.0,86,0.00,,---,0.00,VWS V14.00,2013-05-05 02:00:00,
2013-05-04 22:05:00,58.5,54.0,30.06,NE,34,7.0,15.0,85,0.00,,---,0.00,VWS V14.00,2013-05-05 02:05:00,
2013-05-04 22:10:00,58.5,54.0,30.05,ENE,69,5.0,15.0,85,0.00,,---,0.00,VWS V14.00,2013-05-05 02:10:00,
2013-05-04 22:15:00,58.5,54.0,30.05,ENE,71,6.0,15.0,85,0.00,,---,0.00,VWS V14.00,2013-05-05 02:15:00,
2013-05-04 22:20:00,58.4,53.9,30.06,NE,41,9.0,15.0,85,0.00,,---,0.00,VWS V14.00,2013-05-05 02:20:00,
2013-05-04 22:25:00,58.4,53.6,30.05,NE,46,12.0,15.0,84,0.00,,---,0.00,VWS V14.00,2013-05-05 02:25:00,
2013-05-04 22:30:00,58.4,53.6,30.05,NE,37,7.0,18.0,84,0.00,,---,0.00,VWS V14.00,2013-05-05 02:30:00,
2013-05-04 22:35:00,58.3,53.5,30.05,NNE,29,12.0,18.0,84,0.00,,---,0.00,VWS V14.00,2013-05-05 02:35:00,
2013-05-04 22:40:00,58.3,53.5,30.05,North,10,10.0,18.0,84,0.00,,---,0.00,VWS V14.00,2013-05-05 02:40:00,
2013-05-04 22:45:00,58.3,53.2,30.05,NNE,14,8.0,19.0,83,0.00,,---,0.00,VWS V14.00,2013-05-05 02:45:00,
2013-05-04 22:50:00,58.2,53.1,30.04,NNE,31,8.0,19.0,83,0.00,,---,0.00,VWS V14.00,2013-05-05 02:50:00,
2013-05-04 22:55:00,58.1,53.0,30.04,NNE,29,10.0,19.0,83,0.00,,---,0.00,VWS V14.00,2013-05-05 02:55:00,
2013-05-04 23:00:00,57.9,53.1,30.04,NNE,25,9.0,17.0,84,0.00,,---,0.00,VWS V14.00,2013-05-05 03:00:00,
2013-05-04 23:05:00,57.8,53.0,30.04,NE,34,10.0,17.0,84,0.00,,---,0.00,VWS V14.00,2013-05-05 03:05:00,
2013-05-04 23:10:00,57.6,52.8,30.04,North,8,9.0,19.0,84,0.00,,---,0.00,VWS V14.00,2013-05-05 03:10:00,
2013-05-04 23:15:00,57.5,52.7,30.03,NE,52,8.0,19.0,84,0.00,,---,0.00,VWS V14.00,2013-05-05 03:15:00,
2013-05-04 23:20:00,57.3,52.5,30.03,NNE,23,5.0,19.0,84,0.00,,---,0.00,VWS V14.00,2013-05-05 03:20:00,
2013-05-04 23:25:00,57.2,52.4,30.03,NE,39,9.0,19.0,84,0.00,,---,0.00,VWS V14.00,2013-05-05 03:25:00,
2013-05-04 23:30:00,57.1,52.3,30.03,NNE,33,8.0,15.0,84,0.00,,---,0.00,VWS V14.00,2013-05-05 03:30:00,
2013-05-04 23:35:00,57.0,52.5,30.03,NNE,23,5.0,15.0,85,0.00,,---,0.00,VWS V14.00,2013-05-05 03:35:00,
2013-05-04 23:40:00,56.9,52.4,30.04,NNE,33,10.0,17.0,85,0.00,,---,0.00,VWS V14.00,2013-05-05 03:40:00,
2013-05-04 23:45:00,56.7,52.2,30.03,NE,34,7.0,17.0,85,0.00,,---,0.00,VWS V14.00,2013-05-05 03:45:00,
2013-05-04 23:50:00,56.6,52.2,30.03,NE,54,6.0,17.0,85,0.00,,---,0.00,VWS V14.00,2013-05-05 03:50:00,
2013-05-04 23:55:00,56.4,52.0,30.03,ENE,60,7.0,17.0,85,0.00,,---,0.00,VWS V14.00,2013-05-05 03:55:00,